Location: Boiro
(42.6475°N, 8.8834°W)
Time: 23:06:54
(UTC+01:00)

Tiros 1 - Pass Details

Date: 06 December 2021
Orbit: 629 x 664 km, 48.4° (Epoch: 18 January)

Event Time Altitude Azimuth Distance (km) Brightness Sun altitude
Rises 01:16:23 0° 295° (WNW) 2,955 - -69.7°
Reaches altitude 10° 01:18:44 10° 291° (WNW) 2,049 - -69.8°
Maximum altitude 01:23:21 55° 214° (SW) 783 - -69.8°
Drops below altitude 10° 01:28:00 10° 137° (SE) 2,060 - -69.8°
Sets 01:30:22 0° 133° (SE) 2,974 - -69.8°
